SCP
2 2 2 2 1 1 1 1 1 1 1 1 0 0 0 0 0 0 0 0 0 0 0 0 0 0 1 1 1 1 1 2 2 2 2 2 1 1 1 1 1 1 1
2 2 2 2 2 2 1 1 1 1 0 0 0 0 0 0 0 0 0 0 0 0 0 0 0 0 1 1 1 1 1 2 2 2 2 2 1 1 1 1 1 1 1
2 2 2 2 2 2 1 1 1 1 0 0 0 0 0 0 0 0 0 0 0 0 0 0 0 0 0 0 1 1 1 1 2 2 2 2 2 1 1 1 1 1 1
2 2 2 2 2 1 1 1 1 1 1 1 0 0 0 0 0 0 0 0 0 0 0 0 0 0 0 0 0 1 1 1 1 1 2 2 2 1 1 1 1 1 1
2 2 1 1 1 1 1 1 1 1 1 1 1 1 1 0 0 0 0 0 0 0 0 0 0 0 0 0 0 0 1 1 1 1 1 1 1 1 1 1 1 1 1
1 1 1 1 1 1 1 1 1 1 2 1 1 1 1 1 0 0 0 0 0 0 0 0 0 0 0 0 0 0 0 1 1 1 1 1 1 1 1 1 1 1 1
1 1 1 1 1 1 1 1 1 2 2 2 2 2 1 1 1 0 0 0 0 0 0 0 0 0 0 0 0 0 0 0 1 1 1 1 1 1 1 1 1 1 1
0 0 0 0 0 1 1 1 2 2 2 2 2 2 1 1 1 1 0 0 0 0 0 0 0 0 0 0 0 0 0 0 0 0 1 1 1 1 1 1 1 1 1
0 0 0 0 0 0 1 1 1 2 2 2 2 2 1 1 1 1 1 1 0 0 0 0 0 0 0 0 0 0 0 0 0 0 1 1 1 1 1 1 1 1 1
0 0 0 0 0 0 0 1 1 1 1 1 1 1 1 1 1 1 1 1 1 0 0 0 0 0 0 0 0 0 0 0 0 0 0 1 1 1 1 1 1 1 1
0 0 0 0 0 0 0 0 0 0 0 0 1 1 1 1 1 1 1 1 1 1 0 0 0 0 0 0 0 0 0 0 0 0 0 0 0 1 1 1 1 1 1
0 0 0 0 0 0 0 0 0 0 0 0 0 0 0 0 0 1 1 1 1 1 0 0 0 0 0 0 0 0 0 0 0 0 0 0 0 0 1 1 1 1 1
0 0 0 0 0 0 0 0 0 0 0 0 0 0 0 0 0 0 0 1 1 1 0 0 0 0 0 0 0 0 0 0 0 0 0 0 0 0 0 1 1 1 1
0 0 0 0 0 0 0 0 0 0 0 0 0 0 0 0 0 0 0 0 0 0 0 0 0 0 0 0 0 0 0 0 0 0 0 0 0 0 0 0 0 0 0
0 0 0 0 0 0 0 0 0 0 0 0 0 0 0 0 0 0 0 0 0 0 0 0 0 0 0 0 0 0 0 0 0 0 0 0 0 0 0 0 0 0 0
0 0 0 0 0 0 0 0 0 0 0 0 0 0 0 0 0 0 0 0 0 0 0 0 0 0 0 0 0 0 0 0 0 0 0 0 0 0 0 0 0 0 0
0 0 0 0 0 0 0 0 0 0 0 0 0 0 0 0 0 0 0 0 0 0 0 0 0 0 0 0 0 0 0 0 0 0 0 0 0 0 0 0 0 0 0
0 0 0 0 0 0 0 0 0 0 0 0 0 0 0 0 0 0 0 0 0 0 0 0 0 0 0 0 0 0 0 0 0 0 0 0 0 0 0 0 0 0 0
0 0 0 0 0 0 0 0 0 0 0 0 0 0 0 0 0 0 0 0 0 0 0 0 0 0 0 0 0 0 0 0 0 0 0 0 0 0 0 0 0 0 0
0 0 0 0 0 0 0 0 0 0 0 0 0 0 0 0 0 0 0 0 0 0 0 0 0 0 0 0 0 0 0 0 0 0 0 0 0 0 0 0 0 0 0
0 0 0 0 0 0 0 0 0 0 0 0 0 0 0 0 0 0 0 0 0 0 0 0 0 0 0 0 0 0 0 0 0 0 0 0 0 0 0 0 0 0 0
0 0 0 0 0 0 0 0 0 0 0 0 0 0 0 0 0 0 0 0 0 0 0 0 0 0 0 0 0 0 0 0 0 0 0 0 0 0 0 0 0 0 0
0 0 0 0 0 0 0 0 0 0 0 0 0 0 0 0 0 0 0 0 0 0 0 0 -0 0 0 0 0 0 0 0 0 0 0 0 0 0 0 0 0 0 0
0 0 0 0 0 0 0 0 0 0 0 0 0 0 0 0 0 0 0 0 0 0 0 0 0 0 0 0 0 0 0 0 0 0 0 0 0 0 0 0 0 0 0
0 0 0 0 0 0 0 0 0 0 0 0 0 0 0 0 0 0 0 0 0 0 0 0 0 0 0 0 0 0 0 0 0 0 0 0 0 0 0 0 0 0 0
0 0 0 0 0 0 0 0 0 0 0 0 0 0 0 0 0 0 0 0 0 0 0 0 0 0 0 0 0 0 0 0 0 0 0 0 0 0 0 0 0 0 0
Wind_Speed
7 8 8 9 9 9 8 7 6 6 4 3 2 2 2 2 3 3 3 5 6 7 7 8 8 8 8 9 11 10 12 10 8 8 9 10 12 12 11 11 11 12 11
7 8 8 9 9 9 8 8 7 7 5 3 2 1 2 3 3 3 3 5 6 7 7 8 9 9 8 10 10 10 9 9 7 7 7 8 9 11 12 11 11 11 9
7 8 8 8 8 8 9 7 7 7 5 5 3 2 3 4 3 3 3 4 6 7 7 9 9 9 10 9 9 10 11 10 9 8 8 7 8 6 7 11 10 10 9
4 6 6 6 6 6 6 6 6 6 6 6 4 4 3 4 4 4 4 6 6 7 8 8 9 9 10 10 11 10 9 11 10 9 9 11 9 7 6 6 9 10 10
2 2 2 2 2 3 4 5 5 5 5 5 4 5 5 4 4 5 5 7 6 6 8 8 8 9 9 10 11 11 11 10 11 10 9 10 10 12 10 9 7 7 8
2 3 3 2 1 2 3 4 4 5 4 5 5 5 5 5 6 7 7 7 6 6 7 8 8 9 9 10 11 11 12 11 12 11 10 10 9 9 10 11 10 7 6
6 6 6 6 4 3 3 3 4 4 4 4 4 5 5 6 7 7 6 7 7 6 7 8 8 9 9 10 11 11 12 12 13 12 11 10 11 10 9 10 9 8 5
10 10 10 9 8 7 6 5 4 3 3 3 3 4 5 6 6 6 7 7 7 7 8 9 10 10 11 11 10 11 12 11 12 13 13 10 10 10 10 9 8 7 6
14 14 13 13 12 11 10 9 7 6 6 5 5 4 5 6 7 8 8 7 6 7 8 9 10 10 11 11 11 10 11 11 12 12 12 11 10 9 9 8 8 8 6
13 13 12 13 12 12 11 11 10 9 9 8 7 6 7 7 8 9 9 9 9 8 9 9 10 10 11 10 11 11 10 11 11 9 11 10 9 8 8 8 7 7 6
11 11 11 11 11 11 11 11 10 10 9 10 9 9 9 9 9 9 9 9 9 9 9 9 10 10 10 10 10 11 11 11 10 9 10 10 10 8 7 6 6 6 5
10 10 10 10 10 11 10 10 10 10 10 10 10 10 11 11 11 11 10 10 10 10 9 9 9 10 9 9 9 10 9 9 9 8 8 8 7 7 5 4 5 4 5
10 10 10 10 10 10 10 10 10 10 10 10 10 10 11 11 12 12 12 11 11 10 10 9 9 9 9 9 8 8 7 7 6 6 5 5 4 4 3 3 4 4 5
11 11 10 10 10 10 10 10 10 9 9 9 9 9 10 10 11 12 12 11 11 11 11 10 9 9 8 8 7 6 5 4 4 4 3 2 1 2 3 4 5 6 7
11 10 10 10 9 9 9 9 9 9 9 9 10 10 10 10 10 11 11 11 11 11 11 11 10 9 8 6 5 5 3 2 2 3 3 4 5 6 4 5 7 8 8
12 12 12 12 12 11 12 11 11 11 10 11 12 11 10 11 11 11 11 11 11 11 11 11 11 10 7 2 1 5 3 1 1 3 4 6 8 11 12 12 10 8 8
14 15 16 15 15 15 14 15 14 13 13 13 14 13 12 12 11 11 11 11 10 10 11 11 11 11 7 5 4 5 4 3 3 4 5 6 8 8 10 12 13 12 10
17 18 18 18 17 17 17 16 16 16 16 16 16 15 14 14 13 12 12 11 9 9 9 10 11 10 8 9 8 6 6 4 4 5 7 8 8 8 9 10 11 11 10
20 19 19 19 18 18 18 17 17 17 17 17 16 15 15 15 14 14 13 11 10 9 9 9 10 10 8 10 11 9 7 6 6 6 7 8 9 9 9 12 13 12 10
19 19 20 20 19 18 17 18 18 18 17 17 16 15 15 16 15 15 14 12 10 10 9 9 8 10 9 10 13 12 8 8 8 7 7 8 10 8 7 11 12 12 11
21 21 21 19 18 19 18 19 19 19 18 17 17 16 16 15 16 15 13 12 11 10 9 9 8 8 7 8 14 14 8 9 10 9 9 8 10 7 4 6 9 11 11
23 22 20 19 19 19 19 20 20 19 18 18 18 17 16 15 14 14 13 12 12 11 9 8 7 5 6 7 11 13 11 7 10 9 9 10 10 8 5 6 11 11 9
23 21 22 22 20 19 19 21 20 19 19 19 18 17 17 15 15 15 14 13 12 10 8 6 5 4 4 5 10 13 10 7 6 7 12 14 13 11 7 11 12 10 7
22 21 22 22 21 20 20 20 20 19 19 19 18 17 16 16 15 12 12 12 11 9 8 6 5 3 4 6 8 9 9 8 9 10 14 14 10 7 11 11 10 7 6
22 21 21 21 22 21 20 20 19 18 19 19 17 17 16 15 13 13 11 12 11 8 8 7 5 4 5 7 10 11 12 12 12 13 11 11 11 11 11 10 8 7 7
22 22 22 22 22 21 20 19 18 17 17 16 15 13 12 11 11 12 11 12 13 9 10 10 8 6 7 7 10 12 12 13 17 15 12 12 11 11 11 10 9 9 8
Wind_Direction
161 170 174 174 174 176 175 178 170 172 177 183 216 230 252 274 286 291 322 311 312 316 306 301 305 292 285 284 282 276 270 262 255 255 253 248 244 245 245 243 244 244 246
169 171 168 169 171 167 166 166 168 166 174 171 200 259 302 292 304 307 309 304 313 313 304 310 301 297 293 282 280 278 275 272 255 245 256 258 247 234 235 235 236 241 242
175 170 169 167 165 163 164 163 162 163 175 182 200 204 226 249 258 284 288 308 311 307 308 304 300 301 291 286 286 281 274 273 265 244 245 253 254 252 224 226 232 234 235
171 166 168 163 164 161 159 162 171 174 181 198 219 241 276 297 316 306 310 308 298 305 307 303 301 297 293 291 283 278 277 271 267 255 242 249 267 267 254 223 224 226 231
156 147 150 150 162 177 177 181 187 194 198 212 216 236 260 285 295 299 297 296 300 300 304 307 304 300 293 293 291 287 277 270 266 263 256 250 247 246 255 254 234 223 223
52 33 21 23 295 237 219 214 211 220 221 227 233 248 271 282 293 295 303 300 304 305 310 310 306 298 297 294 288 284 277 270 269 266 259 251 246 237 237 245 244 239 225
30 23 16 8 356 337 313 273 256 251 251 251 254 261 270 274 273 284 294 299 305 309 319 312 304 299 296 291 287 281 277 272 267 262 257 253 250 253 250 249 248 243 228
36 30 23 15 10 10 3 349 338 325 319 299 291 281 273 272 280 280 290 294 298 307 315 303 298 297 296 293 289 282 276 271 268 264 260 257 253 249 246 245 243 236 222
40 36 32 28 24 23 22 15 11 8 360 345 325 300 292 288 288 284 271 277 284 292 297 298 297 298 299 297 294 282 280 277 271 266 261 254 252 248 244 241 238 235 224
42 38 33 29 25 24 24 22 20 17 8 358 344 332 319 304 291 282 283 283 282 283 287 290 294 298 299 298 294 289 282 278 273 267 263 259 254 247 241 236 233 232 232
32 28 24 21 18 16 16 14 12 9 5 360 350 341 333 322 306 290 282 277 274 275 278 284 290 294 298 302 300 297 296 287 282 276 265 259 255 249 241 232 226 219 207
15 14 11 8 5 4 1 1 358 357 353 350 346 344 337 330 318 307 295 283 273 268 270 278 284 288 296 302 303 303 304 297 290 285 276 266 255 242 235 222 210 197 182
354 355 355 353 350 347 345 343 342 341 339 338 336 338 336 331 324 315 303 290 278 269 267 270 276 285 292 296 301 305 310 312 311 306 294 284 260 229 206 190 167 150 137
335 338 339 337 336 331 328 325 324 322 321 320 317 319 322 321 317 316 309 297 285 274 266 263 268 275 281 286 294 301 313 327 333 340 337 321 267 163 147 137 131 127 124
317 319 316 314 310 308 304 301 300 300 301 300 299 299 303 307 311 314 312 304 291 280 272 265 263 263 266 274 293 295 303 327 357 21 28 45 71 87 107 120 123 127 126
298 296 295 295 295 293 291 291 288 285 283 282 282 283 287 294 300 306 308 306 298 288 279 268 263 259 257 130 310 287 263 241 72 75 73 79 84 85 85 87 89 102 125
298 300 304 304 303 301 300 297 296 291 284 280 279 279 280 282 287 294 300 303 302 295 286 275 264 256 238 171 199 253 258 195 145 119 109 96 93 96 101 94 89 78 72
307 307 307 305 303 302 300 297 296 294 290 286 284 284 283 282 284 285 290 297 300 297 289 281 272 260 232 183 192 213 225 174 145 133 124 119 119 115 117 113 104 93 76
304 303 303 302 301 299 298 297 295 293 290 288 287 287 286 285 284 283 284 288 293 295 290 281 276 264 237 189 189 207 198 164 150 143 136 133 127 124 128 121 114 107 97
302 301 300 298 296 297 297 294 291 290 290 290 290 289 287 284 282 281 281 280 282 284 285 278 273 266 251 200 191 207 203 166 152 142 138 136 134 140 142 134 130 125 122
299 298 297 295 295 295 293 290 289 287 288 288 287 285 282 280 277 275 273 271 271 279 283 278 270 259 253 211 195 206 216 174 165 159 158 141 138 148 150 149 135 132 135
300 299 297 294 292 291 289 287 286 287 287 285 283 280 278 276 275 273 271 267 266 269 271 269 267 252 237 225 204 204 223 214 172 166 155 139 147 148 155 134 125 139 156
300 299 296 294 291 289 288 286 287 286 284 282 279 278 276 272 270 269 267 262 254 256 264 260 261 254 234 212 197 194 208 223 185 145 119 133 144 145 133 131 144 168 168
301 300 298 295 293 292 290 287 286 284 281 278 276 273 270 268 266 263 261 259 256 254 256 253 256 251 235 212 189 185 185 172 149 127 121 133 154 149 125 147 171 183 153
302 300 298 296 294 293 290 288 287 285 281 278 274 271 267 264 266 262 257 258 258 258 261 260 246 238 238 220 200 189 184 182 162 148 151 156 158 157 158 165 165 153 149
302 300 298 296 295 294 291 289 286 281 277 275 272 269 265 262 260 260 257 238 238 228 218 231 238 237 232 232 210 199 179 160 151 163 165 166 167 165 163 161 159 159 157